TimeEEST,TemperatureF,Dew PointF,Humidity,Sea Level PressureIn,VisibilityMPH,Wind Direction,Wind SpeedMPH,Gust SpeedMPH,PrecipitationIn,Events,Conditions,WindDirDegrees,DateUTC
12:20 AM,64.4,55.4,73,29.98,6.2,NW,3.5,-,N/A,Thunderstorm,Thunderstorm,320,2012-10-07 21:20:00
12:50 AM,66.2,53.6,64,29.95,6.2,North,5.8,-,N/A,Thunderstorm,Thunderstorm,10,2012-10-07 21:50:00
1:20 AM,66.2,51.8,60,29.95,6.2,North,6.9,-,N/A,,Mostly Cloudy,10,2012-10-07 22:20:00
1:50 AM,66.2,51.8,60,29.95,6.2,Variable,2.3,-,N/A,,Mostly Cloudy,0,2012-10-07 22:50:00
2:20 AM,68.0,51.8,56,29.95,6.2,NNE,5.8,-,N/A,,Mostly Cloudy,30,2012-10-07 23:20:00
2:50 AM,66.2,50.0,56,29.95,6.2,NNE,4.6,-,N/A,,Mostly Cloudy,20,2012-10-07 23:50:00
3:00 AM,67,50,44,29.83,6,NNE,4.6,,,,Partly Cloudy,20,2012-10-08 00:00:00
3:20 AM,64.4,51.8,64,29.92,6.2,Variable,2.3,-,N/A,,Mostly Cloudy,0,2012-10-08 00:20:00
3:50 AM,66.2,51.8,60,29.95,6.2,Variable,2.3,-,N/A,,Mostly Cloudy,0,2012-10-08 00:50:00
4:20 AM,64.4,51.8,64,29.95,6.2,WNW,4.6,-,N/A,,Mostly Cloudy,300,2012-10-08 01:20:00
4:50 AM,64.4,51.8,64,29.95,6.2,WNW,4.6,-,N/A,,Mostly Cloudy,300,2012-10-08 01:50:00
5:20 AM,62.6,51.8,68,29.92,6.2,West,4.6,-,N/A,,Mostly Cloudy,270,2012-10-08 02:20:00
5:50 AM,62.6,51.8,68,29.92,6.2,West,4.6,-,N/A,,Mostly Cloudy,280,2012-10-08 02:50:00
6:20 AM,60.8,51.8,72,29.92,6.2,West,3.5,-,N/A,,Mostly Cloudy,260,2012-10-08 03:20:00
6:50 AM,60.8,51.8,72,29.92,6.2,West,5.8,-,N/A,,Mostly Cloudy,270,2012-10-08 03:50:00
7:20 AM,62.6,51.8,68,29.92,6.2,West,5.8,-,N/A,,Mostly Cloudy,280,2012-10-08 04:20:00
7:50 AM,66.2,53.6,64,29.92,6.2,Variable,2.3,-,N/A,,Mostly Cloudy,0,2012-10-08 04:50:00
8:20 AM,68.0,53.6,60,29.92,6.2,WSW,3.5,-,N/A,,Mostly Cloudy,250,2012-10-08 05:20:00
8:50 AM,69.8,51.8,53,29.92,6.2,Variable,1.2,-,N/A,,Mostly Cloudy,0,2012-10-08 05:50:00
9:00 AM,70,51,41,29.84,12,Calm,Calm,,,,Scattered Clouds,,2012-10-08 06:00:00
9:20 AM,71.6,50.0,46,29.92,6.2,ENE,3.5,-,N/A,,Mostly Cloudy,70,2012-10-08 06:20:00
9:50 AM,71.6,51.8,50,29.92,6.2,East,4.6,-,N/A,,Mostly Cloudy,80,2012-10-08 06:50:00
10:20 AM,75.2,48.2,38,29.92,6.2,ESE,4.6,-,N/A,,Mostly Cloudy,110,2012-10-08 07:20:00
10:50 AM,75.2,50.0,41,29.89,6.2,ESE,5.8,-,N/A,,Mostly Cloudy,110,2012-10-08 07:50:00
11:20 AM,77.0,50.0,39,29.89,6.2,SE,4.6,-,N/A,,Mostly Cloudy,130,2012-10-08 08:20:00
11:50 AM,80.6,48.2,32,29.89,2.5,SE,4.6,-,N/A,,Mostly Cloudy,130,2012-10-08 08:50:00
12:20 PM,80.6,46.4,30,29.86,2.2,East,5.8,-,N/A,,Mostly Cloudy,100,2012-10-08 09:20:00
12:50 PM,84.2,42.8,23,29.83,-9999.0,South,11.5,-,N/A,,Mostly Cloudy,180,2012-10-08 09:50:00
1:20 PM,82.4,41.0,23,29.83,-9999.0,South,9.2,-,N/A,,Mostly Cloudy,190,2012-10-08 10:20:00
1:50 PM,82.4,42.8,25,29.83,1.6,SSW,15.0,-,N/A,,Mostly Cloudy,210,2012-10-08 10:50:00
2:20 PM,84.2,39.2,20,29.83,1.7,South,12.7,-,N/A,,Mostly Cloudy,180,2012-10-08 11:20:00
2:50 PM,82.4,37.4,20,29.80,2.5,South,13.8,-,N/A,,Mostly Cloudy,170,2012-10-08 11:50:00
3:00 PM,82,38,12,29.71,2,South,13.8,,,,Widespread Dust,170,2012-10-08 12:00:00
3:20 PM,82.4,39.2,21,29.80,2.8,SSW,13.8,-,N/A,,Mostly Cloudy,200,2012-10-08 12:20:00
3:50 PM,82.4,37.4,20,29.80,3.7,South,12.7,-,N/A,,Mostly Cloudy,180,2012-10-08 12:50:00
4:20 PM,80.6,37.4,21,29.80,4.3,South,15.0,-,N/A,,Mostly Cloudy,170,2012-10-08 13:20:00
4:50 PM,80.6,41.0,24,29.80,5.0,South,13.8,-,N/A,,Mostly Cloudy,190,2012-10-08 13:50:00
5:20 PM,78.8,39.2,24,29.80,4.3,SSW,12.7,-,N/A,,Mostly Cloudy,210,2012-10-08 14:20:00
5:50 PM,77.0,41.0,28,29.80,5.0,SSW,10.4,-,N/A,,Mostly Cloudy,200,2012-10-08 14:50:00
6:20 PM,75.2,41.0,29,29.80,5.6,South,8.1,-,N/A,,Mostly Cloudy,190,2012-10-08 15:20:00
6:50 PM,73.4,42.8,33,29.80,6.2,South,9.2,-,N/A,,Mostly Cloudy,190,2012-10-08 15:50:00
7:20 PM,71.6,42.8,35,29.83,6.2,SW,6.9,-,N/A,,Mostly Cloudy,230,2012-10-08 16:20:00
7:50 PM,71.6,42.8,35,29.83,6.2,WSW,8.1,-,N/A,,Scattered Clouds,250,2012-10-08 16:50:00
8:20 PM,69.8,44.6,40,29.83,6.2,West,5.8,-,N/A,,Scattered Clouds,260,2012-10-08 17:20:00
8:50 PM,69.8,44.6,40,29.83,-9999.0,West,4.6,-,N/A,,Clear,270,2012-10-08 17:50:00
9:00 PM,71,44,26,29.74,12,West,4.6,,,,Partly Cloudy,270,2012-10-08 18:00:00
9:20 PM,71.6,44.6,38,29.83,-9999.0,West,12.7,-,N/A,,Clear,280,2012-10-08 18:20:00
9:50 PM,69.8,46.4,43,29.83,-9999.0,West,10.4,-,N/A,,Clear,280,2012-10-08 18:50:00
10:20 PM,69.8,46.4,43,29.83,-9999.0,West,11.5,-,N/A,,Clear,270,2012-10-08 19:20:00
10:50 PM,69.8,46.4,43,29.83,-9999.0,West,15.0,-,N/A,,Clear,270,2012-10-08 19:50:00
11:20 PM,68.0,46.4,46,29.83,-9999.0,West,11.5,-,N/A,,Clear,270,2012-10-08 20:20:00
11:50 PM,68.0,46.4,46,29.83,-9999.0,West,11.5,-,N/A,,Clear,270,2012-10-08 20:50:00